Lid_Strength_Index
2 0 -0 -1 -1 -1 -1 -1 -0 -0 -1 -1 -1 -1 -1 -1 -1 -1 -1 -1 -1 -1 -2 -1 -1 -2 -2 -1 -1 -1 -1 -1 -1 -1 -2 -2 -2 -2 -2 -1 -1 -1 -2
0 0 -0 -0 -1 -1 -1 -1 -1 -1 -1 -1 -1 -1 -1 -1 -1 -1 -1 -1 -1 -2 -2 -1 -1 -2 -1 -1 -1 -1 -1 -1 -1 -1 -1 -2 -2 -2 -2 -2 -1 -1 -2
1 -0 -0 -0 -1 -1 -1 -1 -1 -1 -1 -1 -1 -1 -1 -1 -1 -1 -1 -1 -1 -1 -2 -1 -1 -1 -1 -1 -1 -1 -1 -1 -1 -1 -1 -1 -1 -2 -2 -2 -1 -2 -2
0 -0 -0 -0 -0 -1 -1 -1 -1 -1 -1 -1 -1 -1 -1 -1 -1 -1 -1 -1 -1 -1 -2 -1 -1 -1 -1 -1 -1 -1 -1 -1 -1 -1 -1 -1 -1 -2 -2 -1 -2 -2 -2
0 -0 -0 -0 -0 -1 -1 -1 -1 -1 -1 -1 -1 -1 -1 -1 -1 -1 -1 -1 -1 -1 -1 -1 -1 -1 -1 -1 -1 -1 -1 -1 -1 -1 -1 -1 -1 -1 -2 -2 -2 -2 -2
0 -0 0 -0 -0 -1 -1 -1 -1 -1 -0 -0 -1 -1 -1 -1 -1 -1 -1 -1 -1 -1 -1 -1 -1 -1 -1 -1 -1 -1 -1 -1 -1 -1 -1 -1 -1 -2 -2 -1 -1 -1 -1
0 0 -0 1 -0 -0 -1 -1 -1 -0 -0 -0 -1 -1 -1 -1 -1 -1 -1 -1 -1 -1 -1 -1 -1 -1 -1 -1 -1 -1 -0 -0 -1 -1 -1 -1 -1 -2 -2 -1 -1 -1 -1
1 -0 -0 -0 -0 -0 -0 -0 -0 -0 -0 -0 -0 -1 -1 -1 -1 -1 -1 -1 -1 -1 -1 -1 -1 -1 -1 -1 -1 -0 -0 -0 -1 -1 -1 -1 -1 -2 -2 -1 -2 -1 -1
10 6 2 -0 0 -0 0 0 0 -0 -0 -0 -0 -0 -0 -0 -0 -0 -0 -1 -1 -1 -1 -1 -1 -1 -1 -1 -0 0 0 -0 -1 -1 -1 -1 -1 -2 -2 -2 -2 -2 -1
10 10 10 9 3 0 1 0 0 0 -0 -0 -0 0 0 0 -0 -0 -0 -0 -1 -1 -1 -1 -1 -1 -1 -0 0 0 0 -0 -1 -1 -1 -1 -1 -2 -2 -2 -2 -2 -2
10 10 10 11 9 7 0 1 0 -0 -0 -0 -0 0 1 -0 -0 -0 -0 -0 -0 -0 -1 -1 -1 -0 0 0 0 0 0 -0 -1 -1 -1 -0 -1 -2 -2 -2 -2 -2 -1
11 10 9 10 10 9 2 -0 0 -0 -0 -0 -0 -0 -0 -0 -0 -0 -0 0 -0 -0 -0 -0 -0 -0 0 1 1 0 1 -0 -1 -1 -1 0 -1 -2 -2 -2 -2 -2 -2
11 10 10 10 9 9 9 7 0 1 0 -0 -0 -0 -0 -0 -0 -0 -0 -0 -0 -0 -0 -0 -0 -0 1 1 2 3 1 -0 -1 -1 -0 0 -1 -1 -2 -2 -2 -2 -2
12 12 11 10 9 9 9 9 7 0 1 0 -0 -0 -0 -0 -0 -0 -0 -0 -0 -0 -0 0 1 1 1 2 3 4 1 -0 -0 -0 -0 1 -0 -1 -2 -2 -2 -2 -2
13 12 12 11 10 10 9 9 9 7 0 1 -0 -0 -0 -0 0 -0 -0 -0 -0 -0 -0 0 1 1 2 2 4 3 1 0 -0 -0 -1 1 0 -1 -2 -2 -2 -2 -2
11 12 11 11 11 10 10 9 9 8 6 0 -0 -0 -0 -0 0 0 0 0 0 0 -0 -0 1 1 2 2 4 2 0 -0 0 -0 -1 0 1 0 -1 -1 -2 -2 -2
10 10 10 11 11 11 11 10 8 8 7 6 -0 0 -0 -0 0 0 0 0 -0 -0 0 0 2 2 3 3 4 2 -0 -0 0 -0 -1 -1 0 2 1 -1 -1 -1 -2
10 10 9 9 9 10 11 10 8 7 9 8 4 -0 -0 -0 0 0 0 0 -0 0 -0 0 1 1 2 3 5 3 0 0 0 -0 -1 0 -0 -1 1 1 -0 -1 -1
10 10 10 9 9 9 9 8 8 8 7 7 7 2 -0 -0 0 0 0 0 -0 0 0 1 1 1 2 3 5 3 1 1 1 0 0 0 0 -1 -1 1 1 1 -0
10 9 9 9 9 9 9 9 9 8 8 7 7 6 1 -0 -0 0 0 0 -0 1 1 1 1 1 1 2 4 4 2 3 2 1 1 1 0 1 1 -0 -0 -0 1
10 10 10 10 10 9 10 10 10 11 9 8 8 7 7 4 -0 0 0 0 0 1 1 1 1 1 2 2 5 5 4 4 3 2 2 1 1 1 1 1 -0 -0 -0
10 9 9 10 9 9 10 10 9 10 9 8 6 6 5 4 2 0 0 1 1 1 1 1 2 2 2 2 3 5 5 3 3 3 3 2 1 2 2 1 1 1 -0
9 9 8 8 9 9 9 9 9 9 9 9 8 7 6 6 4 5 0 0 1 1 2 2 2 2 3 2 2 4 6 6 4 3 3 2 2 2 1 2 1 1 1
9 9 8 8 8 8 8 9 9 10 11 9 9 7 6 5 4 4 3 3 4 0 1 2 2 2 3 3 2 2 2 3 5 6 4 3 3 2 2 2 1 1 1
9 9 9 8 8 8 8 8 8 9 9 9 9 8 6 4 3 1 2 3 3 4 1 1 2 3 3 3 3 2 3 3 4 5 6 4 3 2 1 2 1 1 1
9 9 9 9 9 8 8 8 9 9 9 10 9 9 8 6 3 1 2 2 2 5 4 2 1 3 3 3 2 2 2 3 4 4 5 4 4 2 1 1 1 1 1